This demonstration page uses our WeatherBlox Daily Observations layout. Learn more.

Left ArrowRight Arrow

38.80484, -77.04692

Hourly Observations for September 28, 2022

Temp ( °F °C ) Dew Point ( °F °C ) Humidity (%) Winds ( mph kmh ) Pressure ( in mb ) Visibility ( mi km ) Precip ( " mm )
12:52 am 00:52 Mostly Clear 57 13.9 42 5.6 57 57 NNW 3 6 30.09 1019 10 16 0.00 0.00
1:52 am 01:52 Mostly Clear 56 13.3 42 5.6 60 60 VRB 6 9 30.11 1020 10 16 0.00 0.00
2:52 am 02:52 Clear 56 13.3 42 5.6 60 60 WNW 7 11 30.11 1020 10 16 0.00 0.00
3:52 am 03:52 Clear 54 12.2 41 5 61 61 W 5 7 30.12 1020 10 16 0.00 0.00
4:52 am 04:52 Clear 53 11.7 41 5 63 63 W 7 11 30.13 1020 10 16 0.00 0.00
5:52 am 05:52 Clear 52 11.1 41 5 66 66 Calm 30.14 1021 10 16 0.00 0.00
6:52 am 06:52 Mostly Clear 53 11.7 42 5.6 66 66 W 7 11 30.15 1021 10 16 0.00 0.00
7:52 am 07:52 Mostly Sunny 54 12.2 43 6.1 66 66 W 6 9 30.17 1022 10 16 0.00 0.00
8:52 am 08:52 Mostly Sunny 59 15 43 6.1 55 55 WNW 8 13 30.18 1022 10 16 0.00 0.00
9:52 am 09:52 Partly Cloudy 62 16.7 44 6.7 52 52 NW 15 24 30.19 1022 10 16 0.00 0.00
10:52 am 10:52 Partly Cloudy 64 17.8 45 7.2 50 50 NNW 13 20 30.21 1023 10 16 0.01 0.13
11:52 am 11:52 Partly Cloudy 67 19.4 46 7.8 47 47 NW 15 24 30.20 1023 10 16 0.00 0.00
12:52 pm 12:52 Partly Cloudy 68 20 47 8.3 47 47 WNW 12 19 30.20 1023 10 16 0.00 0.00
1:52 pm 13:52 Partly Cloudy 70 21.1 48 8.9 46 46 NW 10 17 30.19 1022 10 16 0.00 0.00
2:52 pm 14:52 Partly Cloudy 71 21.7 48 8.9 44 44 NW 9 15 30.19 1022 10 16 0.00 0.00
3:52 pm 15:52 Mostly Cloudy 71 21.7 48 8.9 44 44 NW 12 19 30.19 1023 10 16 0.00 0.00
4:52 pm 16:52 Mostly Cloudy 69 20.6 47 8.3 45 45 NNW 15 24 30.20 1023 10 16 0.00 0.00
5:52 pm 17:52 Mostly Cloudy 68 20 48 8.9 49 49 NW 16 26 30.21 1023 10 16 0.00 0.00
6:52 pm 18:52 Mostly Cloudy 66 18.9 48 8.9 52 52 NW 13 20 30.23 1024 10 16 0.01 0.13
7:52 pm 19:52 Mostly Cloudy 64 17.8 48 8.9 56 56 NNW 12 19 30.24 1024 10 16 0.00 0.00
8:52 pm 20:52 Partly Cloudy 62 16.7 48 8.9 60 60 NW 10 17 30.26 1025 10 16 0.00 0.00
9:52 pm 21:52 Clear 61 16.1 48 8.9 62 62 NNW 12 19 30.27 1025 10 16 0.00 0.00
10:52 pm 22:52 Mostly Clear 59 15 49 9.4 69 69 NNW 12 19 30.28 1026 10 16 0.00 0.00
11:52 pm 23:52 Mostly Clear 59 15 48 8.9 67 67 NNW 10 17 30.29 1026 10 16 0.00 0.00

Powered by AerisWeather